EW6791 Weather Reports


Display with metric or nautical units.
time (UTC)temp
F
wind
direction
speed
MPH
gust
MPH
rain 1hr
in
rain 24hr
in
rain mn
in
humidity
%
barometer
mb
20260902080100 75 201 0.0 0.0 0.00 0.00 0.00 77 1010.3
20260902074554 75 141 0.0 0.0 0.00 0.00 0.00 76 1010.1
20260902073052 75 190 0.0 0.0 0.00 0.00 0.00 76 1010.2
20260902071601 76 182 0.0 0.0 0.00 0.00 0.00 76 1010.1
20260902070052 76 179 0.0 0.0 0.00 0.00 0.00 76 1010.0
20260902064551 76 178 0.0 0.0 0.00 0.00 0.00 75 1010.1
20260902063111 77 190 0.0 0.0 0.00 0.00 0.00 75 1010.1
20260902061553 77 175 0.0 0.0 0.00 0.00 0.00 75 1010.3
20260902060108 77 186 0.0 0.0 0.00 0.00 0.00 75 1010.5
20260902054546 77 165 0.0 0.0 0.00 0.00 0.00 75 1010.7
20260902053044 76 187 0.0 0.0 0.00 0.00 0.00 75 1010.7
20260902051538 75 184 0.0 0.0 0.00 0.00 0.00 77 1010.7
20260902050036 74 146 0.0 0.0 0.00 0.00 0.00 78 1010.6
20260902044541 74 136 0.0 0.0 0.00 0.00 0.00 78 1010.6
20260902043031 73 68 0.0 0.0 0.00 0.00 0.00 78 1010.5
20260902041530 73 87 0.0 0.0 0.00 0.00 0.00 78 1010.5
20260902040028 72 86 0.0 0.0 0.00 0.00 0.00 78 1010.5
20260902034526 72 74 0.0 0.0 0.00 0.00 0.00 77 1010.2
20260902033025 73 114 0.0 0.0 0.00 0.00 0.00 77 1010.2
20260902031536 73 143 0.0 0.0 0.00 0.00 0.00 77 1010.3
20260902030025 72 131 0.0 0.0 0.00 0.00 0.00 77 1010.3
20260902024524 73 150 0.0 0.0 0.00 0.00 0.00 77 1010.5
20260902023024 72 127 0.0 0.0 0.00 0.00 0.00 77 1010.5
20260902021531 72 134 0.0 0.0 0.00 0.00 0.00 76 1010.5
20260902020027 72 114 0.0 0.0 0.00 0.00 0.00 76 1010.6
20260902014542 73 114 0.0 0.0 0.00 0.00 0.00 76 1010.6
20260902013021 73 114 0.0 0.0 0.00 0.00 0.00 76 1010.6
20260902011523 73 122 0.0 0.0 0.00 0.00 0.00 75 1010.6
20260902010026 73 127 0.0 0.0 0.00 0.00 0.00 75 1010.5
20260902004524 73 136 0.0 0.0 0.00 0.00 0.00 75 1010.5
20260902003020 74 91 0.0 0.0 0.00 0.00 0.00 74 1010.4
20260902001519 74 83 0.0 0.0 0.00 0.00 0.00 73 1010.4
20260902000032 75 84 0.0 1.0 0.00 0.00 0.00 72 1010.6
20260901234536 76 56 0.0 1.0 0.00 0.00 0.00 71 1010.6
20260901233017 77 75 0.0 1.0 0.00 0.00 0.00 70 1010.7
20260901231518 78 49 0.0 1.0 0.00 0.00 0.00 70 1010.7
20260901230017 78 44 0.0 4.0 0.00 0.00 0.00 70 1011.0
20260901224517 78 41 2.0 6.0 0.00 0.00 0.00 69 1011.0
20260901223016 79 35 4.0 7.0 0.00 0.00 0.00 67 1011.1
20260901221539 80 39 2.0 7.0 0.00 0.00 0.00 67 1010.9
20260901220015 81 40 2.0 6.0 0.00 0.00 0.00 67 1011.0
20260901214513 81 46 2.0 5.0 0.00 0.00 0.00 68 1011.0
20260901213010 79 34 2.0 4.0 0.00 0.00 0.00 71 1011.0
20260901211509 79 35 2.0 3.0 0.00 0.00 0.00 70 1010.9
20260901210009 77 28 1.0 4.0 0.00 0.00 0.00 72 1011.0
20260901204502 77 31 0.0 3.0 0.00 0.00 0.00 72 1011.1
20260901203105 76 33 2.0 4.0 0.00 0.00 0.00 73 1011.1
20260901201559 75 30 1.0 4.0 0.00 0.00 0.00 74 1011.0
20260901200058 75 23 1.0 2.0 0.00 0.00 0.00 74 1011.0
20260901194559 75 31 1.0 4.0 0.00 0.00 0.00 74 1010.9
20260901193107 74 31 2.0 4.0 0.00 0.00 0.00 75 1011.0
20260901191556 74 19 1.0 3.0 0.00 0.00 0.00 74 1011.2
20260901190056 74 16 1.0 3.0 0.00 0.00 0.00 74 1011.3
20260901184603 74 15 0.0 2.0 0.00 0.00 0.00 73 1011.5
20260901183057 74 13 0.0 0.0 0.00 0.00 0.00 73 1011.6
20260901181555 74 11 0.0 0.0 0.00 0.00 0.00 74 1011.7
20260901180053 74 12 0.0 0.0 0.00 0.00 0.00 74 1011.9
20260901174553 74 359 0.0 0.0 0.00 0.00 0.00 74 1012.1
20260901173051 74 328 0.0 1.0 0.00 0.00 0.00 74 1012.3
20260901171557 74 326 0.0 0.0 0.00 0.00 0.00 74 1012.2
20260901170051 74 326 0.0 0.0 0.00 0.00 0.00 74 1012.2
20260901164551 75 316 0.0 0.0 0.00 0.00 0.00 74 1012.2
20260901163050 75 303 0.0 1.0 0.00 0.00 0.00 73 1012.2
20260901161550 75 275 0.0 2.0 0.00 0.00 0.00 73 1012.2
20260901160058 74 297 0.0 2.0 0.00 0.00 0.00 73 1012.3
20260901154549 74 289 0.0 2.0 0.00 0.00 0.00 73 1012.4
20260901153048 74 308 0.0 3.0 0.00 0.00 0.00 73 1012.3
20260901151548 75 308 0.0 4.0 0.00 0.00 0.00 71 1012.4
20260901150048 75 284 0.0 4.0 0.00 0.00 0.00 72 1012.2
20260901144545 74 264 0.0 4.0 0.00 0.00 0.00 72 1012.1
20260901143045 74 210 0.0 4.0 0.00 0.00 0.00 72 1012.2
20260901141546 75 257 0.0 4.0 0.00 0.00 0.00 72 1012.1
20260901140043 76 244 0.0 4.0 0.00 0.00 0.00 71 1012.2
20260901134559 75 249 0.0 1.0 0.00 0.00 0.00 72 1012.1
20260901133039 75 307 0.0 0.0 0.00 0.00 0.00 72 1012.1
20260901131537 74 328 0.0 0.0 0.00 0.00 0.00 73 1012.0
20260901130035 74 328 0.0 0.0 0.00 0.00 0.00 74 1012.0
20260901124533 73 328 0.0 0.0 0.00 0.00 0.00 74 1012.0
20260901123031 73 328 0.0 0.0 0.00 0.00 0.00 74 1011.9
20260901121529 72 328 0.0 0.0 0.00 0.00 0.00 76 1011.8
20260901120030 72 139 0.0 0.0 0.00 0.00 0.00 76 1011.7
20260901114529 71 146 0.0 0.0 0.00 0.00 0.00 77 1011.5
20260901113032 70 70 0.0 0.0 0.00 0.00 0.00 78 1011.4
20260901111521 69 70 0.0 0.0 0.00 0.00 0.00 78 1011.2
20260901110020 69 70 0.0 0.0 0.00 0.00 0.00 77 1011.1
20260901104518 69 70 0.0 0.0 0.00 0.00 0.00 76 1011.0
20260901103015 70 70 0.0 0.0 0.00 0.00 0.00 76 1010.9
20260901101514 70 130 0.0 0.0 0.00 0.00 0.00 76 1010.7
20260901100014 71 143 0.0 0.0 0.00 0.00 0.00 76 1010.7
20260901094512 71 145 0.0 0.0 0.00 0.00 0.00 76 1010.6
20260901093018 71 183 0.0 0.0 0.00 0.00 0.00 76 1010.5
20260901091510 71 183 0.0 0.0 0.00 0.00 0.00 75 1010.4
20260901090013 71 181 0.0 0.0 0.00 0.00 0.00 75 1010.4
20260901084525 71 224 0.0 0.0 0.00 0.00 0.00 75 1010.3
20260901083008 71 192 0.0 0.0 0.00 0.00 0.00 75 1010.2
20260901081507 71 146 0.0 0.0 0.00 0.00 0.00 74 1010.1